This is the latest recevied weather packets stored in our database for station/object KY4GW. If no packets are shown the sender has not sent any weather packets the latest 1 day(s).
| Time | Temp. | Humidity | Pressure | Rain* | Wind** | Luminosity | Snow |
|---|---|---|---|---|---|---|---|
| 1778002460 | 21.11° C | 62% | 1013.8 hPa | 0 mm | 0.89 m/s, 234° | 286 W/m² | - |
| 1778002157 | 21.11° C | 61% | 1013.4 hPa | 0 mm | 0.45 m/s, 187° | 211 W/m² | - |
| 1778001855 | 21.11° C | 63% | 1013.4 hPa | 0 mm | 0.89 m/s, 192° | 189 W/m² | - |
| 1778001555 | 21.11° C | 61% | 1013.4 hPa | 0 mm | 0.89 m/s, 204° | 165 W/m² | - |
| 1778001252 | 21.67° C | 61% | 1013.8 hPa | 0 mm | 1.34 m/s, 252° | 266 W/m² | - |
| 1778000948 | 21.67° C | 61% | 1013.8 hPa | 0 mm | 0.89 m/s, 114° | 378 W/m² | - |
| 1778000645 | 21.67° C | 59% | 1013.8 hPa | 0 mm | 1.34 m/s, 204° | 332 W/m² | - |
| 1778000341 | 21.67° C | 61% | 1013.8 hPa | 0 mm | 0.89 m/s, 179° | 339 W/m² | - |
| 1778000036 | 21.67° C | 60% | 1013.8 hPa | 0 mm | 0.89 m/s, 198° | 401 W/m² | - |
| 1777999732 | 21.11° C | 61% | 1013.8 hPa | 0 mm | 0.89 m/s, 193° | 394 W/m² | - |
| 1777999429 | 21.11° C | 59% | 1013.8 hPa | 0 mm | 0.89 m/s, 223° | 345 W/m² | - |
| 1777999127 | 21.11° C | 60% | 1013.8 hPa | 0 mm | 1.34 m/s, 257° | 347 W/m² | - |
| 1777998826 | 21.11° C | 61% | 1013.8 hPa | 0 mm | 0.89 m/s, 256° | 333 W/m² | - |
| 1777998524 | 20.56° C | 61% | 1013.8 hPa | 0 mm | 0.89 m/s, 178° | 278 W/m² | - |
| 1777998220 | 20.56° C | 60% | 1013.8 hPa | 0 mm | 0.89 m/s, 204° | 227 W/m² | - |
| 1777997917 | 20.56° C | 60% | 1013.8 hPa | 0 mm | 0.89 m/s, 179° | 216 W/m² | - |
| 1777997614 | 20.56° C | 62% | 1014.1 hPa | 0 mm | 0.89 m/s, 258° | 225 W/m² | - |
| 1777997311 | 21.11° C | 62% | 1014.1 hPa | 0 mm | 0.89 m/s, 210° | 210 W/m² | - |
| 1777997009 | 21.11° C | 63% | 1014.1 hPa | 0 mm | 0.89 m/s, 180° | 219 W/m² | - |
| 1777996706 | 21.67° C | 64% | 1013.8 hPa | 0 mm | 0.89 m/s, 199° | 241 W/m² | - |
| 1777996401 | 21.11° C | 62% | 1013.8 hPa | 0 mm | 0.89 m/s, 240° | 314 W/m² | - |
| 1777996098 | 21.11° C | 62% | 1013.8 hPa | 0 mm | 0.89 m/s, 210° | 359 W/m² | - |
| 1777995794 | 21.11° C | 62% | 1013.4 hPa | 0 mm | 0.89 m/s, 188° | 406 W/m² | - |
| 1777995491 | 21.11° C | 62% | 1013.4 hPa | 0 mm | 0.89 m/s, 210° | 394 W/m² | - |
| 1777995188 | 20.56° C | 62% | 1013.4 hPa | 0 mm | 0.89 m/s, 252° | 376 W/m² | - |
* Rain latest hour (hover to see other rain measurements)
** Current wind speed in m/s (hover to see current wind gust speed)